www.pogodaiklimat.ru

Погода и климат >> Архив погоды >> Россия >> Ямало-Ненецкий АО >> Ныда


ПОГОДА в Ныде

  • Прогноз погоды в Ныде
  • Монитор погоды в Ныде
  • Климат города

АРХИВ ПОГОДЫ в Ныде

Время (UTC), дата Ветер
(напр.,м/с)
 
Видим.   Явления Облачность Т
(С)
Тd
(С)
f
(%)
Тe
(С)
Тes
(С)
Комфортность P
(гПа)
Po
(гПа)
Тmin
(С)
Tmax
(С)
R
(мм)
R24
(мм)
S
(см)
18 10.12 ЮЗ 7 10 км 10/10 300 м
[Sc]
-9.1 -10.8 87 -18 -18 1018.7 1017.8
21 10.12 ЮЗ 6
{10}
10 км 10/10 300 м
[Sc]
-8.6 -10.5 86 -17 -17 1017.8 1016.9
00 11.12 ЮЗ 8
{11}
10 км позёмок {метель} 4/0
[Ac trans]
-8.6 -10.2 88 -18 -18 1017.7 1016.8
03 11.12 ЮЗ 7
{11}
10 км позёмок {метель} 10/0
[As op]
-7.6 -9.3 88 -16 -16 1017.6 1016.7 -9.6 48
06 11.12 ЮЗ 5 4000 м дымка {метель} 10/10 300 м
[St]
-6.8 -8.1 90 -14 -14 1017.3 1016.4
09 11.12 ЮЗ 3 4000 м дымка 10/10 300 м
[St]
-6.2 -7.6 90 -12 -12 1017.0 1016.1
12 11.12 ЮЗ 6 4000 м слабый снег [диам. изморози 2 мм] 10/10 300 м
[Sc]
-5.8 -7.5 88 -14 -14 1016.6 1015.7
15 11.12 ЮЗ 5 10 км {снег} 10/10 300 м
[Sc]
-6.4 -8.1 88 -14 -14 1016.4 1015.5 -5.6 0.2
18 11.12 ЮЗ 5 10 км {снег} 10/10 300 м
[Sc]
-7.2 -8.6 90 -15 -15 1015.5 1014.6
21 11.12 ЮЗ 5 10 км {снег} 10/10 300 м
[Sc]
-8.2 -10.0 87 -16 -16 1015.1 1014.2
00 12.12 ЮЗ 4 4000 м слабый снег 10/10 300 м
[Sc]
-8.2 -9.8 88 -15 -15 1014.7 1013.8
03 12.12 ЮЗ 3 10 км {снег} 10/10 300 м
[Sc]
-8.4 -10.1 88 -14 -14 1014.7 1013.8 -8.5 0.2 52
06 12.12 ЮЗ 4 10 км {снег} 10/6 300 м
[Sc Ac As]
-8.1 -9.9 87 -15 -15 1014.0 1013.1
09 12.12 З 5 4000 м слабый снег 10/0
[Ac As]
-7.8 -9.5 88 -15 -15 1013.7 1012.8
12 12.12 СЗ 3 4000 м слабый снег 10/0
[Ac As]
-7.0 -8.5 89 -13 -13 1013.5 1012.6
15 12.12 З 2 4000 м слабый снег 10/4 300 м
[Sc Ac As]
-8.2 -9.9 88 -13 -13 1013.5 1012.6 -6.9 0.3
18 12.12 ЮЗ 4 4000 м слабый снег 10/0
[As op]
-6.8 -8.4 88 -13 -13 1012.7 1011.8
21 12.12 З 6 4000 м слабый снег 10/0
[As trans]
-11.6 -13.3 87 -20 -20 1011.8 1010.9
00 13.12 ЮЗ 6 10 км {снег} 3/0
[Ac trans]
-12.2 -14.1 86 -21 -21 1010.9 1010.0
03 13.12 ЮЗ 9-12
{12}
10 км позёмок {метель} 8/0
[Ac trans]
-9.8 -11.8 85 -20 -20 1008.4 1007.5 -13.2 0.5 52
06 13.12 З 9-12
{16}
2000 м снег {метель} 10/0
[As op]
-7.1 -8.7 88 -17 -17 1007.6 1006.7
09 13.12 СЗ 6
{12}
10 км {снег, метель} 9/4 600 м
[Sc Ac trans]
-10.0 -12.3 83 -19 -19 1010.6 1009.7
12 13.12 СЗ 5
{12}
10 км {снег, метель} 3/0
[Ac trans]
-15.4 -17.7 82 -24 -24 1013.8 1012.8
15 13.12 З 6 10 км ясно -17.6 -20.1 81 -28 -28 1015.0 1014.0 -6.6 0.6
18 13.12 ЮЗ 6 10 км 6/4 300 м
[Sc Ac trans]
-16.4 -18.8 82 -26 -26 1013.4 1012.4
21 13.12 Ю 9-11
{11}
4000 м слабый снег {метель} 10/10 300 м
[Sc]
-12.6 -14.7 84 -23 -23 1008.4 1007.5
00 14.12 ЮЗ 13-18
{19}
500 м слабый снег {метель} 10/0
[As op]
-9.0 -10.7 87 -21 -21 999.7 998.8
03 14.12 З 14-17
{18}
1000 м сильная метель {снег} 8/4 300 м
[Cb cap Ac trans]
-2.4 -3.1 95 -13 -13 997.2 996.3 -17.8 1 54
06 14.12 З 13-17
{19}
1000 м слабый снег {метель} 10/10 300 м
[Sc]
-1.7 -2.3 96 -12 -12 996.6 995.7
09 14.12 З 14-18
{19}
500 м слабый снег {метель} 10/0
[As op]
-1.9 -2.6 95 -12 -12 996.4 995.5
12 14.12 СЗ 13-17
{18}
1000 м слабый снег {метель} 10/0 300 м
[As op]
-1.3 -1.8 96 -11 -11 998.5 997.6
15 14.12 СЗ 11-16
{21}
2000 м метель {снег} 10/10 300 м
[Sc]
-5.4 -6.4 93 -16 -16 1001.5 1000.6 -0.1 2
18 14.12 СЗ 5
{21}
10 км {снег, метель} 6/6 300 м
[Sc]
-11.2 -12.7 89 -19 -19 1005.5 1004.6
21 14.12 З 3 10 км 3/3 300 м
[Sc]
-16.8 -18.8 84 -24 -24 1007.5 1006.5
00 15.12 СЗ 1 10 км ясно -18.3 -20.4 84 -21 -21 1009.9 1008.9
03 15.12 С 1 10 км 3/0
[Ac trans]
-19.4 -21.6 83 -22 -22 1011.3 1010.3 -20.5 52
06 15.12 Ю 1 4000 м дымка [диам. изморози 5 мм] 8/4 300 м
[Sc Ac trans Ci fib]
-21.6 -23.2 87 -25 -25 1013.4 1012.4 -22.2
09 15.12 ЮВ 1 4000 м дымка 9/6 300 м
[Sc Ac trans]
-20.5 -21.7 90 -24 -24 1014.0 1013.0
12 15.12 ЮВ 3 4000 м слабый снег [диам. изморози 6 мм] 10/10 300 м
[Sc]
-14.9 -16.4 88 -21 -21 1014.1 1013.1
15 15.12 ЮВ 4 4000 м слабый снег 10/0
[As op]
-14.4 -16.2 86 -22 -22 1013.0 1012.0 -14.3 0.4
18 15.12 ЮВ 3 10 км {снег} 10/0
[As op]
-15.4 -17.2 86 -22 -22 1013.4 1012.4
21 15.12 В 1 10 км 10/0
[As op]
-15.8 -17.7 85 -18 -18 1013.7 1012.7
00 16.12 ЮВ 1 4000 м дымка 10/10 300 м
[Sc]
-14.0 -15.7 87 -16 -16 1013.5 1012.5
03 16.12 Ю 3 1000 м дымка 10/10 300 м
[St]
-11.5 -13.0 89 -17 -17 1011.7 1010.8 -17.6 0.0 51
06 16.12 Ю 5 4000 м слабый снег 10/10 300 м
[Sc]
-9.9 -11.3 89 -18 -18 1010.1 1009.2
09 16.12 ЮЗ 7-10
{10}
10 км позёмок {снег, метель} 10/10 300 м
[Sc]
-4.9 -5.8 93 -13 -13 1008.4 1007.5
12 16.12 СЗ 5 2000 м дымка {снег, метель} 10/10 300 м
[St]
-0.7 -1.2 96 -7 -7 1008.6 1007.7
15 16.12 З 8-11
{12}
10 км 10/10 300 м
[Sc]
+0.2 -0.2 97 -7 -7 1008.8 1007.9 +0.2 0.3
18 16.12 З 8-11
{12}
4000 м слабая морось [диам. гололёда 0 мм] 10/10 300 м
[St]
+0.5 +0.1 97 -7 -7 1009.2 1008.3
21 16.12 СЗ 6-10
{13}
10 км {морось} 10/10 300 м
[Sc]
+0.5 +0.2 98 -6 -6 1009.0 1008.1
00 17.12 СЗ 9-12
{13}
10 км {снег, морось} 10/10 300 м
[Sc]
+0.5 +0.2 98 -7 -7 1010.0 1009.1
03 17.12 З 7-11
{16}
10 км 10/10 300 м
[Sc]
+0.7 +0.2 96 -6 -6 1010.4 1009.5 +0.2 0.8 50
06 17.12 З 8-15
{16}
10 км 9/9 300 м
[Sc]
+0.8 -2.0 82 -6 -6 1010.1 1009.2
09 17.12 З 8-14
{18}
4000 м слабый ливневой снег 10/10 300 м
[Cb cap]
-1.4 -2.4 93 -9 -9 1010.1 1009.2
12 17.12 З 11-15
{18}
2000 м метель {ливн. осадки} 9/9 300 м
[Sc]
-4.3 -6.1 87 -14 -14 1009.8 1008.9

 

Местоположение метеостанции Ныда (Ямало-Ненецкий АО, Россия): широта 66.63 долгота 72.93 высота над уровнем моря 7 м.

В архиве по умолчанию представлена погода в Ныде за последнюю неделю. Архивные данные за месяц целиком и за предыдущие месяцы, начиная с января 2011 года, Вы можете получить, выбрав интересующий диапазон дат из раскрывающегося списка и нажав кнопку "Ввод!".


*Определитесь, кто Вы:
робот инопланетянин человек

Внимание! Время в таблицах - всемирное. Для получения местного времени необходимо прибавить поправку, которая в Ныде равна 5 ч.

Смотрите также архив погоды в соседних городах и на ближайших метеорологических станциях:

Погода в Пангодах (Ямало-Ненецкий АО, Россия) (113 км)
Погода в Новом Порте (Ямало-Ненецкий АО, Россия) (117 км)
Погода в Надыме (Ямало-Ненецкий АО, Россия) (130 км)
Погода в Новом Уренгое (Ямало-Ненецкий АО, Россия) (181 км)
Погода в Полуе (Ямало-Ненецкий АО, Россия) (201 км)
Погода в Белоярске (Ямало-Ненецкий АО, Россия) (212 км)
Погода в Лонг-Югане (Ямало-Ненецкий АО, Россия) (226 км)
Погода в Уренгое (Ямало-Ненецкий АО, Россия) (256 км)
Погода в Тазовском (Ямало-Ненецкий АО, Россия) (268 км)
Погода в Салехарде (Ямало-Ненецкий АО, Россия) (277 км)

Пояснения к столбцам:

Ветер - указаны скорость ветра в м/с - средняя за 10 мин, порывы в срок и между сроками (в фигурных скобках) и направление, откуда дует ветер: С - северный, СВ - северо-восточный, В - восточный, ЮВ - юго-восточный, Ю - южный, ЮЗ - юго-западный, З - западный, СЗ - северо-западный.
Видимость - горизонтальная дальность видимости в метрах или километрах. При видимости от 1 до 10 км при отсутствии осадков обычно наблюдается дымка, при ухудшении видимости до 1 км и менее - туман. В сухую погоду видимость может ухудшаться дымом, пылью или мглою.
Явления - указаны атмосферные явления, наблюдавшиеся в срок или в последний час перед сроком; фигурными скобками обозначены явления, наблюдавшиеся между сроками (за 1-3 часа до срока); квадратными скобками обозначены град или гололедные отложения с указанием их диаметра в мм.
Облачность - указаны через наклонную черту общая и нижняя облачность в баллах и высота нижней границы облаков в метрах; квадратными скобками обозначены формы облаков: Ci - перистые, Cs - перисто-слоистые, Cc - перисто-кучевые, Ac - высококучевые, As - высокослоистые, Sc - слоисто-кучевые, Ns - слоисто-дождевые, Cu - кучевые, Cb - кучево-дождевые. Подробнее классификацию облаков см. в Атласе облаков (PDF).
T - Температура воздуха - температура, измеренная на высоте 2 м над землей.
Td - Температура точки росы - температура, при понижении до которой содержащийся в воздухе водяной пар достигнет насыщения.
f - Относительная влажность воздуха - влажноcть воздуха, измеренная на высоте 2 м над землей.
Te - Эффективная температура - температура, которую ощущает одетый по сезону человек в тени. Характеристика душности погоды. При расчете учитывается влияние влажности воздуха и скорости ветра на теплоощущения человека.
Tes - Эффективная температура на солнце - температура, которую ощущает человек, с поправкой на солнечный нагрев. Характеристика знойности погоды. Зависит от высоты солнца над горизонтом, облачности и скорости ветра. Ночью, в пасмурную погоду, а также при ветре 12 м/с и более поправка равна нулю.
P - Атмосферное давление - приведенное к уровню моря атмосферное давление.
Po - Атмосферное давление - измеренное на уровне метеостанции атмосферное давление.
Tmin - Минимальная температура - минимум температуры воздуха на высоте 2 м над землей.
Tmax - Максимальная температура - максимум температуры воздуха на высоте 2 м над землей.
R - Количество осадков - Количество выпавших осадков за период времени, мм. При наведении курсора мыши на число - период времени, за который выпало указанное количество осадков.
R24 - Количество осадков - Количество выпавших осадков за 24 часа, мм.
S - Снежный покров - Высота снежного покрова, см. При наведении курсора мыши на число - состояние снежного покрова и степень покрытия местности в баллах.